| time (UTC) | temp C | wind direction | speed KPH | gust KPH | rain 1hr cm | rain 24hr cm | rain mn cm | humidity % | barometer mb |
| 20260510131605 | 18 | 55 | 3.2 | 11.3 | 0.00 | 0.00 | 0.00 | 70 | 1015.2 |
| 20260510130058 | 17 | 105 | 1.6 | 14.5 | 0.00 | 0.00 | 0.00 | 73 | 1015.0 |
| 20260510124611 | 15 | 0 | 0.0 | 0.0 | 0.00 | 0.00 | 0.00 | 83 | 1015.0 |
| 20260510123117 | 13 | 0 | 0.0 | 0.0 | 0.00 | 0.00 | 0.00 | 91 | 1014.9 |
| 20260510121607 | 11 | 0 | 0.0 | 3.2 | 0.00 | 0.00 | 0.00 | 95 | 1014.7 |
| 20260510120100 | 11 | 0 | 0.0 | 3.2 | 0.00 | 0.00 | 0.00 | 95 | 1014.3 |
| 20260510114606 | 10 | 0 | 0.0 | 3.2 | 0.00 | 0.00 | 0.00 | 96 | 1014.2 |
| 20260510113108 | 10 | 94 | 1.6 | 6.4 | 0.00 | 0.00 | 0.00 | 96 | 1013.9 |
| 20260510111629 | 10 | 92 | 6.4 | 11.3 | 0.00 | 0.00 | 0.00 | 96 | 1013.5 |
| 20260510110059 | 8 | 96 | 3.2 | 6.4 | 0.00 | 0.00 | 0.00 | 96 | 1013.5 |
| 20260510104608 | 8 | 96 | 3.2 | 6.4 | 0.00 | 0.00 | 0.00 | 95 | 1013.5 |
| 20260510103058 | 8 | 0 | 0.0 | 4.8 | 0.00 | 0.00 | 0.00 | 95 | 1013.3 |
| 20260510101559 | 8 | 95 | 1.6 | 6.4 | 0.00 | 0.00 | 0.00 | 95 | 1013.0 |
| 20260510100101 | 8 | 109 | 3.2 | 6.4 | 0.00 | 0.00 | 0.00 | 95 | 1012.8 |
| 20260510094557 | 8 | 128 | 3.2 | 4.8 | 0.00 | 0.00 | 0.00 | 94 | 1012.6 |
| 20260510093057 | 8 | 103 | 0.0 | 9.7 | 0.00 | 0.00 | 0.00 | 95 | 1012.6 |
| 20260510091604 | 9 | 114 | 3.2 | 6.4 | 0.00 | 0.00 | 0.00 | 95 | 1012.5 |
| 20260510090119 | 9 | 113 | 3.2 | 6.4 | 0.00 | 0.00 | 0.00 | 95 | 1012.3 |
| 20260510084605 | 9 | 105 | 3.2 | 9.7 | 0.00 | 0.00 | 0.00 | 94 | 1012.0 |
| 20260510083109 | 9 | 113 | 4.8 | 9.7 | 0.00 | 0.00 | 0.00 | 95 | 1012.1 |
| 20260510081600 | 9 | 94 | 3.2 | 6.4 | 0.00 | 0.00 | 0.00 | 94 | 1012.0 |
| 20260510074559 | 9 | 97 | 3.2 | 6.4 | 0.00 | 0.00 | 0.00 | 94 | 1011.8 |
| 20260510073100 | 9 | 101 | 3.2 | 6.4 | 0.00 | 0.00 | 0.00 | 94 | 1011.7 |
| 20260510071559 | 10 | 86 | 3.2 | 9.7 | 0.00 | 0.00 | 0.00 | 93 | 1011.9 |
| 20260510070108 | 10 | 109 | 4.8 | 9.7 | 0.00 | 0.00 | 0.00 | 93 | 1011.9 |
| 20260510064610 | 10 | 107 | 6.4 | 11.3 | 0.00 | 0.00 | 0.00 | 93 | 1011.9 |
| 20260510063057 | 10 | 99 | 4.8 | 6.4 | 0.00 | 0.00 | 0.00 | 92 | 1012.0 |
| 20260510061559 | 10 | 95 | 3.2 | 9.7 | 0.00 | 0.00 | 0.00 | 93 | 1011.9 |
| 20260510060058 | 10 | 100 | 4.8 | 9.7 | 0.00 | 0.00 | 0.00 | 92 | 1012.1 |
| 20260510054602 | 10 | 96 | 4.8 | 11.3 | 0.00 | 0.00 | 0.00 | 91 | 1012.1 |
| 20260510053057 | 10 | 93 | 4.8 | 11.3 | 0.00 | 0.00 | 0.00 | 91 | 1012.3 |
| 20260510051608 | 10 | 107 | 4.8 | 9.7 | 0.00 | 0.00 | 0.00 | 90 | 1012.4 |
| 20260510044609 | 11 | 96 | 4.8 | 9.7 | 0.00 | 0.00 | 0.00 | 89 | 1012.3 |
| 20260510043057 | 11 | 107 | 4.8 | 9.7 | 0.00 | 0.00 | 0.00 | 89 | 1012.4 |
| 20260510041610 | 11 | 111 | 4.8 | 9.7 | 0.00 | 0.00 | 0.00 | 89 | 1012.4 |
| 20260510040100 | 11 | 96 | 4.8 | 9.7 | 0.00 | 0.00 | 0.00 | 88 | 1012.1 |
| 20260510034604 | 11 | 101 | 4.8 | 9.7 | 0.00 | 0.00 | 0.00 | 87 | 1012.0 |
| 20260510033059 | 11 | 101 | 3.2 | 6.4 | 0.00 | 0.00 | 0.00 | 87 | 1012.0 |
| 20260510031609 | 11 | 98 | 3.2 | 9.7 | 0.00 | 0.00 | 0.00 | 86 | 1011.8 |
| 20260510030105 | 11 | 105 | 3.2 | 6.4 | 0.00 | 0.00 | 0.00 | 86 | 1011.7 |
| 20260510024557 | 11 | 96 | 4.8 | 9.7 | 0.00 | 0.00 | 0.00 | 85 | 1011.6 |
| 20260510023059 | 12 | 105 | 4.8 | 9.7 | 0.00 | 0.00 | 0.00 | 85 | 1011.5 |
| 20260510021557 | 12 | 105 | 4.8 | 6.4 | 0.00 | 0.00 | 0.00 | 84 | 1011.4 |
| 20260510020058 | 12 | 101 | 4.8 | 9.7 | 0.00 | 0.00 | 0.00 | 82 | 1011.3 |
| 20260510014559 | 13 | 101 | 4.8 | 9.7 | 0.00 | 0.00 | 0.00 | 81 | 1011.1 |
| 20260510013102 | 13 | 104 | 4.8 | 9.7 | 0.00 | 0.00 | 0.00 | 80 | 1010.9 |
| 20260510011557 | 13 | 101 | 3.2 | 6.4 | 0.00 | 0.00 | 0.00 | 78 | 1010.7 |
| 20260510010058 | 14 | 93 | 1.6 | 6.4 | 0.00 | 0.00 | 0.00 | 76 | 1010.5 |
| 20260510004601 | 15 | 103 | 1.6 | 4.8 | 0.00 | 0.00 | 0.00 | 73 | 1010.2 |
| 20260510003109 | 16 | 100 | 1.6 | 6.4 | 0.00 | 0.00 | 0.00 | 70 | 1009.9 |
| 20260510001559 | 17 | 109 | 1.6 | 6.4 | 0.00 | 0.00 | 0.00 | 67 | 1009.6 |
| 20260510000115 | 18 | 116 | 3.2 | 9.7 | 0.00 | 0.00 | 0.00 | 63 | 1009.5 |
| 20260509234628 | 18 | 117 | 1.6 | 6.4 | 0.00 | 0.00 | 0.00 | 59 | 1009.4 |
| 20260509233100 | 19 | 107 | 3.2 | 11.3 | 0.00 | 0.00 | 0.00 | 59 | 1009.4 |
| 20260509231613 | 19 | 109 | 3.2 | 17.7 | 0.00 | 0.00 | 0.00 | 58 | 1009.2 |
| 20260509230107 | 20 | 108 | 1.6 | 16.1 | 0.00 | 0.00 | 0.00 | 55 | 1009.2 |
| 20260509224611 | 20 | 107 | 4.8 | 19.3 | 0.00 | 0.00 | 0.00 | 55 | 1009.3 |
| 20260509223100 | 20 | 111 | 3.2 | 14.5 | 0.00 | 0.00 | 0.00 | 55 | 1009.6 |
| 20260509221603 | 20 | 86 | 8.0 | 16.1 | 0.00 | 0.00 | 0.00 | 54 | 1009.6 |
| 20260509220106 | 20 | 0 | 1.6 | 12.9 | 0.00 | 0.00 | 0.00 | 55 | 1009.5 |
| 20260509214557 | 21 | 109 | 4.8 | 16.1 | 0.00 | 0.00 | 0.00 | 53 | 1009.5 |
| 20260509213059 | 21 | 0 | 3.2 | 11.3 | 0.00 | 0.00 | 0.00 | 52 | 1009.5 |
| 20260509211601 | 20 | 0 | 1.6 | 8.0 | 0.00 | 0.00 | 0.00 | 58 | 1009.5 |
| 20260509210112 | 20 | 161 | 1.6 | 11.3 | 0.00 | 0.00 | 0.00 | 57 | 1009.5 |
| 20260509204610 | 20 | 327 | 3.2 | 17.7 | 0.00 | 0.00 | 0.00 | 54 | 1009.5 |
| 20260509203100 | 20 | 201 | 6.4 | 14.5 | 0.00 | 0.00 | 0.00 | 53 | 1009.3 |
| 20260509201602 | 21 | 68 | 6.4 | 19.3 | 0.00 | 0.00 | 0.00 | 53 | 1009.1 |
| 20260509200107 | 21 | 269 | 4.8 | 17.7 | 0.00 | 0.00 | 0.00 | 52 | 1009.1 |
| 20260509194559 | 21 | 243 | 8.0 | 17.7 | 0.00 | 0.00 | 0.00 | 53 | 1009.4 |
| 20260509193101 | 20 | 217 | 1.6 | 14.5 | 0.00 | 0.00 | 0.00 | 52 | 1009.5 |
| 20260509191558 | 21 | 104 | 8.0 | 19.3 | 0.00 | 0.00 | 0.00 | 50 | 1009.5 |
| 20260509190110 | 20 | 29 | 6.4 | 20.9 | 0.00 | 0.00 | 0.00 | 52 | 1009.6 |
| 20260509184605 | 20 | 69 | 4.8 | 12.9 | 0.00 | 0.00 | 0.00 | 50 | 1009.4 |
| 20260509183059 | 20 | 71 | 3.2 | 19.3 | 0.00 | 0.00 | 0.00 | 53 | 1009.4 |
| 20260509181604 | 20 | 317 | 9.7 | 22.5 | 0.00 | 0.00 | 0.00 | 55 | 1009.6 |
| 20260509180103 | 20 | 82 | 8.0 | 16.1 | 0.00 | 0.00 | 0.00 | 53 | 1009.6 |
| 20260509174558 | 19 | 225 | 6.4 | 17.7 | 0.00 | 0.00 | 0.00 | 57 | 1009.7 |
| 20260509173101 | 19 | 76 | 3.2 | 12.9 | 0.00 | 0.00 | 0.00 | 58 | 1009.7 |
| 20260509171557 | 18 | 104 | 4.8 | 17.7 | 0.00 | 0.00 | 0.00 | 60 | 1009.9 |
| 20260509170105 | 18 | 307 | 4.8 | 14.5 | 0.00 | 0.00 | 0.00 | 59 | 1010.2 |
| 20260509164558 | 18 | 104 | 0.0 | 11.3 | 0.00 | 0.00 | 0.00 | 60 | 1010.3 |
| 20260509163104 | 17 | 177 | 3.2 | 8.0 | 0.00 | 0.00 | 0.00 | 62 | 1010.2 |
| 20260509161558 | 17 | 235 | 3.2 | 8.0 | 0.00 | 0.00 | 0.00 | 61 | 1010.3 |
| 20260509160058 | 17 | 220 | 3.2 | 14.5 | 0.00 | 0.00 | 0.00 | 61 | 1010.5 |
| 20260509154608 | 16 | 86 | 9.7 | 20.9 | 0.00 | 0.00 | 0.00 | 59 | 1010.4 |
| 20260509153057 | 16 | 0 | 1.6 | 12.9 | 0.00 | 0.00 | 0.00 | 61 | 1010.4 |
| 20260509151607 | 16 | 93 | 3.2 | 11.3 | 0.00 | 0.00 | 0.00 | 60 | 1010.3 |
| 20260509150111 | 16 | 199 | 4.8 | 12.9 | 0.00 | 0.00 | 0.00 | 57 | 1010.6 |
| 20260509144601 | 16 | 228 | 3.2 | 8.0 | 0.00 | 0.00 | 0.00 | 59 | 1010.6 |
| 20260509143106 | 16 | 115 | 1.6 | 8.0 | 0.00 | 0.00 | 0.00 | 59 | 1010.8 |
| 20260509141557 | 16 | 88 | 4.8 | 16.1 | 0.00 | 0.00 | 0.00 | 61 | 1010.5 |
| 20260509140106 | 17 | 226 | 4.8 | 17.7 | 0.00 | 0.00 | 0.00 | 59 | 1010.1 |
| 20260509134558 | 16 | 219 | 3.2 | 9.7 | 0.00 | 0.00 | 0.00 | 60 | 1010.2 |
| 20260509133102 | 15 | 0 | 0.0 | 0.0 | 0.00 | 0.00 | 0.00 | 67 | 1010.1 |